CAPE
0 0 0 0 0 0 0 0 0 0 0 0 0 0 0 0 0 0 0 0 0 0 0 0 0 0 0 0 0 0 0 0 0 0 0 0 0 0 0 0 0 0 0 0
0 0 0 0 0 0 0 0 0 0 0 0 0 0 0 0 0 0 0 0 0 0 0 0 0 0 0 0 0 0 0 0 0 0 0 0 0 0 0 0 0 0 0 0
0 0 0 0 0 0 0 0 0 0 0 0 0 0 0 0 0 0 0 0 0 0 0 0 0 0 0 0 0 0 0 0 0 0 0 0 0 0 0 0 0 0 0 0
0 0 0 0 0 0 0 0 0 0 0 0 0 0 0 0 0 0 0 0 0 0 0 0 0 0 0 0 0 0 0 0 0 0 0 0 0 0 0 0 0 0 0 0
0 0 0 0 0 0 0 0 0 0 0 0 0 0 0 0 0 0 0 0 0 0 0 0 0 0 0 0 0 0 0 0 0 0 0 0 0 0 0 0 0 0 0 0
0 0 0 0 0 0 0 0 0 0 0 0 0 0 0 0 0 0 0 0 0 0 0 0 0 0 0 0 0 0 0 0 0 0 0 0 0 0 0 0 0 0 0 0
0 0 0 0 0 0 0 0 0 0 0 0 0 0 0 0 0 0 0 0 0 0 0 0 0 0 0 0 0 0 0 0 0 0 0 0 0 0 0 0 0 0 0 0
0 0 0 0 0 0 0 0 0 0 0 0 0 0 0 0 0 0 0 0 0 0 0 0 0 0 0 0 0 0 0 0 0 0 0 0 0 0 0 0 0 0 0 0
0 0 1 3 0 0 0 0 0 2 10 14 0 0 0 0 0 0 0 0 0 0 0 0 0 0 0 0 0 0 0 0 0 0 0 0 0 0 0 0 0 0 0 0
0 0 0 7 0 0 0 0 15 9 0 1 0 0 3 0 0 0 0 0 0 0 0 0 0 0 0 0 0 0 0 0 0 0 0 0 0 0 0 0 0 0 0 0
0 0 0 2 8 0 0 0 1 17 13 1 0 0 0 5 0 0 0 0 0 0 0 0 0 0 0 0 0 0 0 0 0 0 0 0 0 0 0 0 0 0 0 0
19 7 0 0 0 33 14 11 4 4 0 5 10 2 0 0 0 0 14 5 0 0 0 0 0 0 0 0 0 0 0 0 0 0 0 0 0 0 0 0 0 0 0 0
0 10 5 5 14 40 15 6 20 59 9 16 10 0 0 1 1 1 10 16 0 0 0 0 0 0 0 0 0 0 0 0 0 0 0 0 0 0 0 0 0 0 0 0
0 0 0 4 2 29 90 79 57 63 83 5 30 5 0 25 26 3 6 2 0 3 0 0 0 0 0 0 0 0 0 0 0 0 0 0 0 0 0 0 0 0 0 0
0 0 1 0 0 0 0 0 18 13 36 30 0 21 5 22 21 32 5 10 16 27 31 17 0 0 0 0 0 0 0 0 0 0 0 0 0 0 0 0 0 0 0 0
1 0 6 2 1 2 0 0 0 0 0 23 35 13 0 10 11 12 18 10 3 0 0 17 38 28 10 1 0 1 0 0 0 0 0 0 0 0 0 0 0 0 0 0
4 2 5 4 6 3 0 0 0 0 0 0 1 0 0 0 0 0 0 0 6 4 3 3 15 61 14 0 0 0 0 0 0 0 0 0 0 0 0 0 0 0 0 0
10 11 12 2 1 0 0 0 0 11 0 0 0 0 0 0 0 0 0 0 0 0 0 0 4 0 0 0 2 28 0 0 0 0 0 0 0 0 0 0 0 0 0 1
5 10 2 1 8 5 0 0 0 3 0 0 0 0 0 0 0 0 0 0 0 0 0 0 0 0 2 0 82 20 0 0 0 0 0 0 0 0 0 0 0 0 1 2
24 14 17 13 10 25 1 0 0 0 0 0 0 0 0 0 0 0 0 2 0 24 37 10 0 0 0 111 63 0 0 0 0 0 0 0 0 0 0 0 1 1 1 2
21 25 8 5 17 5 0 0 0 1 0 3 13 0 0 0 0 0 0 0 0 3 0 0 0 0 18 80 2 0 0 0 0 0 0 0 0 0 1 1 1 0 1 1
14 17 13 9 12 5 0 3 5 11 32 17 28 15 30 3 16 15 13 5 12 3 0 17 17 26 122 1 0 0 0 0 0 0 0 0 0 0 0 1 0 0 1 1
21 40 27 26 21 49 1 0 1 4 4 31 2 8 22 19 2 11 10 22 14 17 16 20 78 50 2 0 1 0 0 0 0 0 0 0 0 0 0 0 0 0 0 0
35 71 39 14 0 0 0 1 2 5 0 1 0 0 0 16 21 27 21 9 23 12 26 69 32 6 0 6 0 0 0 0 0 0 0 0 0 0 0 0 0 0 0 1
28 38 23 45 30 53 41 29 15 6 40 45 33 19 37 29 15 43 3 22 13 23 44 31 8 6 2 4 0 0 0 0 0 1 0 0 0 0 0 0 0 0 0 0
3 1 41 6 50 32 46 45 63 52 0 0 10 16 43 42 19 23 3 20 10 23 18 24 1 0 2 1 0 0 0 0 1 0 0 0 0 0 0 0 0 0 0 0
CIN
-0 -0 -0 -0 -0 -0 -0 -0 -0 -0 -0 -0 -0 -0 -0 -0 -0 -0 -0 -0 -0 -0 -0 -0 -0 -0 -0 -0 -0 -0 -0 -0 -0 -0 -0 -0 -0 -0 -0 -0 -0 -0 -0 -0
-0 -0 -0 -0 -0 -0 -0 -0 -0 -0 -0 -0 -0 -0 -0 -0 -0 -0 -0 -0 -0 -0 -0 -0 -0 -0 -0 -0 -0 -0 -0 -0 -0 -0 -0 -0 -0 -0 -0 -0 -0 -0 -0 -0
-0 -0 -0 -0 -0 -0 -0 -0 -0 -0 -0 -0 -0 -0 -0 -0 -0 -0 -0 -0 -0 -0 -0 -0 -0 -0 -0 -0 -0 -0 -0 -0 -0 -0 -0 -0 -0 -0 -0 -0 -0 -0 -0 -0
-0 -0 -0 -0 -0 -0 -0 -0 -0 -0 -0 -0 -0 -0 -0 -0 -0 -0 -0 -0 -0 -0 -0 -0 -0 -0 -0 -0 -0 -0 -0 -0 -0 -0 -0 -0 -0 -0 -0 -0 -0 -0 -0 -0
-0 -0 -0 -0 -0 -0 -0 -0 -0 -0 -0 -0 -0 -0 -0 -0 -0 -0 -0 -0 -0 -0 -0 -0 -0 -0 -0 -0 -0 -0 -0 -0 -0 -0 -0 -0 -0 -0 -0 -0 -0 -0 -0 -0
-0 -0 -0 -0 -0 -0 -0 -0 -0 -0 -0 -0 -0 -0 -0 -0 -0 -0 -0 -0 -0 -0 -0 -0 -0 -0 -0 -0 -0 -0 -0 -0 -0 -0 -0 -0 -0 -0 -0 -0 -0 -0 -0 -0
-0 -0 -0 -0 -0 -0 -0 -0 -0 -0 -0 -0 -0 -0 -0 -0 -0 -0 -0 -0 -0 -0 -0 -0 -0 -0 -0 -0 -0 -0 -0 -0 -0 -0 -0 -0 -0 -0 -0 -0 -0 -0 -0 -0
-0 -0 -0 -0 -0 -0 -0 -0 -0 -0 -0 -0 -0 -0 -0 -0 -0 -0 -0 -0 -0 -0 -0 -0 -0 -0 -0 -0 -0 -0 -0 -0 -0 -0 -0 -0 -0 -0 -0 -0 -0 -0 -0 -0
-0 -0 -8 -7 -0 -0 -0 -1 -0 -8 -10 -8 -0 -0 -0 -0 -0 -0 -0 -0 -0 -0 -0 -0 -0 -0 -0 -0 -0 -0 -0 -0 -0 -0 -0 -0 -0 -0 -0 -0 -0 -0 -0 -0
-0 -1 -0 -8 -0 -0 -0 -1 -9 -6 -0 -2 -0 -0 -3 -0 -0 -0 -0 -0 -0 -0 -0 -0 -0 -0 -0 -0 -0 -0 -0 -0 -0 -0 -0 -0 -0 -0 -0 -0 -0 -0 -0 -0
-0 -0 -0 -4 -4 -0 -0 -0 -2 -6 -7 -6 -0 -1 -0 -12 -0 -0 -0 -1 -0 -0 -0 -0 -0 -0 -0 -0 -0 -0 -0 -0 -0 -0 -0 -0 -0 -0 -0 -0 -0 -0 -0 -0
-10 -4 -0 -0 -0 -12 -8 -7 -5 -3 -0 -5 -8 -3 -0 -0 -0 -4 -4 -3 -0 -0 -0 -0 -0 -0 -0 -0 -0 -0 -0 -0 -0 -0 -0 -0 -0 -0 -0 -0 -0 -0 -0 -0
-0 -2 -3 -5 -5 -8 -22 -5 -5 -6 -9 -4 -3 -1 -0 -2 -2 -5 -2 -3 -0 -0 -0 -0 -0 -0 -0 -0 -0 -0 -0 -0 -0 -0 -0 -0 -0 -0 -0 -0 -0 -0 -0 -0
-0 -0 -0 -7 -4 -8 -10 -9 -7 -5 -3 -24 -6 -4 -3 -8 -8 -10 -11 -11 -0 -2 -1 -0 -0 -0 -0 -0 -0 -0 -0 -0 -0 -0 -0 -0 -0 -0 -0 -0 -0 -0 -0 -0
-0 -0 -2 -0 -0 -0 -0 -2 -16 -48 -24 -4 -0 -8 -6 -9 -38 -32 -95 -32 -7 -6 -5 -5 -0 -0 -1 -1 -0 -0 -0 -0 -0 -0 -0 -0 -0 -0 -0 -0 -0 -0 -0 -0
-3 -0 -5 -6 -6 -7 -0 -0 -0 -0 -0 -6 -6 -7 -0 -16 -33 -36 -6 -9 -2 -0 -0 -3 -5 -3 -2 -3 -0 -6 -0 -0 -0 -0 -0 -0 -0 -0 -0 -0 -0 -0 -0 -0
-8 -6 -7 -2 -4 -11 -1 -0 -0 -0 -0 -1 -6 -0 -0 -0 -0 -0 -0 -5 -6 -4 -6 -4 -4 -3 -2 -1 -0 -0 -0 -0 -0 -0 -0 -0 -0 -0 -0 -0 -0 -0 -0 -1
-7 -8 -6 -4 -9 -1 -0 -0 -1 -8 -5 -10 -3 -0 -0 -0 -0 -0 -0 -0 -0 -0 -0 -1 -2 -1 -0 -0 -4 -56 -0 -0 -0 -0 -0 -0 -0 -0 -0 -0 -0 -0 -0 -0
-11 -7 -6 -5 -1 -6 -6 -0 -0 -7 -3 -0 -0 -0 -0 -0 -0 -0 -0 -0 -0 -0 -0 -0 -0 -0 -6 -0 -14 -97 -0 -0 -0 -0 -0 -0 -0 -0 -0 -0 -0 -1 -1 -0
-12 -33 -5 -7 -4 -1 -1 -0 -0 -0 -0 -0 -0 -0 -0 -0 -0 -0 -0 -17 -12 -3 -7 -15 -0 -0 -0 -19 -53 -0 -0 -0 -0 -0 -0 -0 -0 -0 -0 -0 -1 -1 -1 -0
-9 -11 -6 -4 -1 -4 -9 -2 -8 -6 -0 -3 -10 -0 -2 -0 -0 -0 -0 -0 -0 -2 -0 -0 -0 -0 -37 -67 -34 -0 -0 -0 -0 -0 -0 -0 -0 -0 -1 -1 -1 -1 -1 -1
-9 -8 -5 -8 -3 -1 -0 -14 -10 -7 -5 -5 -8 -4 -3 -4 -4 -4 -7 -19 -5 -1 -0 -1 -1 -2 -51 -16 -0 -0 -0 -0 -0 -0 -0 -0 -0 -0 -0 -1 -1 -1 -1 -1
-35 -8 -6 -6 -4 -8 -54 -0 -4 -55 -5 -8 -16 -43 -65 -7 -4 -5 -5 -2 -7 -2 -4 -18 -2 -17 -30 -0 -1 -1 -0 -0 -0 -0 -0 -0 -0 -0 -0 -0 -0 -0 -0 -0
-9 -8 -8 -3 -0 -0 -1 -1 -1 -7 -0 -1 -1 -0 -1 -6 -6 -7 -4 -7 -1 -8 -3 -0 -9 -11 -0 -1 -1 -0 -0 -0 -0 -0 -0 -0 -0 -0 -0 -0 -0 -0 -0 -1
-16 -7 -6 -6 -6 -10 -6 -8 -8 -58 -5 -6 -4 -5 -5 -8 -7 -4 -6 -2 -1 -1 -5 -8 -14 -10 -1 -1 -0 -0 -0 -0 -0 -0 -0 -0 -0 -0 -0 -0 -0 -1 -1 -0
-43 -10 -2 -3 -5 -13 -10 -7 -11 -6 -0 -1 -6 -7 -4 -4 -13 -5 -3 -1 -2 -1 -13 -48 -5 -6 -1 -1 -0 -0 -1 -0 -0 -0 -0 -0 -0 -0 -0 -0 -0 -1 -0 -0
Wind_Speed
20 29 32 29 28 35 35 32 33 34 23 26 32 33 29 29 24 24 22 21 19 18 15 15 13 10 7 6 5 4 3 4 5 8 11 13 15 17 19 20 22 25 26 27
30 33 34 31 32 31 34 39 37 31 26 29 31 34 36 32 29 24 25 23 22 19 19 17 14 12 10 9 7 6 5 4 6 9 14 17 17 18 21 22 23 25 26 29
32 26 21 32 28 32 33 33 33 34 26 29 32 41 36 31 31 29 28 26 25 22 20 19 17 15 13 11 10 9 8 6 7 11 13 15 17 20 19 18 24 23 28 29
32 31 29 31 32 28 35 30 33 33 31 36 25 45 34 33 33 30 27 27 25 23 22 21 20 18 15 14 12 11 10 9 9 10 12 16 20 22 23 25 26 29 29 30
32 29 29 31 29 28 33 31 27 32 32 35 36 35 34 26 24 26 25 25 22 22 21 22 21 19 16 15 14 13 13 11 11 11 14 15 18 20 22 25 28 30 30 28
34 29 27 29 29 28 24 27 29 30 32 40 36 36 34 30 24 23 22 22 23 24 23 23 22 20 19 16 16 15 14 14 13 12 14 16 19 21 25 27 30 30 31 33
32 35 29 28 28 23 26 28 34 36 38 44 35 37 37 24 23 19 20 17 18 23 26 27 27 23 19 17 17 16 15 15 15 14 14 16 18 21 25 27 29 32 33 34
33 37 29 24 31 29 26 29 32 40 39 39 32 37 35 28 16 17 15 16 18 22 24 23 22 21 20 18 16 16 15 15 16 15 15 16 18 21 23 26 29 31 34 35
38 42 26 23 24 29 35 32 33 41 40 39 31 25 27 22 23 20 20 22 22 20 21 22 23 22 18 17 15 15 14 14 15 14 15 17 19 21 25 28 30 32 34 34
30 42 35 27 26 30 33 33 34 33 43 46 40 37 27 20 19 17 19 18 16 18 18 19 18 17 15 12 12 13 12 13 13 13 15 18 20 22 25 28 31 33 35 35
33 37 41 36 28 35 32 36 34 34 35 42 44 41 33 18 18 18 17 13 15 17 16 15 14 12 10 9 8 10 11 11 12 13 15 18 21 24 26 29 31 33 35 35
30 37 46 41 40 33 34 41 36 42 45 40 41 39 12 16 16 16 13 13 19 16 15 13 10 8 7 6 7 8 10 11 11 13 16 20 22 25 27 30 32 34 35 35
30 35 47 46 42 40 37 37 38 37 38 44 47 44 36 26 17 17 19 18 17 16 14 11 8 7 6 7 8 9 10 13 14 14 17 20 23 26 29 31 33 35 36 36
32 40 45 49 47 41 45 41 41 41 48 43 46 44 40 27 18 19 21 22 20 16 16 15 12 11 10 10 10 11 13 13 15 17 19 23 26 27 30 33 35 36 37 37
34 51 48 52 53 51 47 41 37 43 43 47 48 48 44 37 26 16 17 22 19 20 19 18 20 20 19 18 19 20 21 21 20 22 23 26 27 29 32 34 36 37 37 38
41 53 49 58 51 51 55 50 46 44 41 43 46 50 50 45 41 34 28 26 27 27 28 28 23 22 23 24 25 21 22 24 23 23 25 27 28 31 33 35 37 38 39 40
47 48 49 59 51 55 61 58 57 57 54 50 55 52 48 49 46 43 40 37 37 36 33 36 32 25 27 29 30 25 22 21 21 23 25 27 29 31 33 35 37 39 40 41
48 50 52 59 54 63 49 46 50 54 55 54 55 57 54 54 52 49 45 43 41 39 39 38 38 36 35 33 32 23 22 20 21 24 25 27 30 33 35 37 38 39 39 39
39 45 53 58 62 55 54 50 44 45 50 43 46 53 52 50 48 50 42 43 41 41 42 42 42 39 34 36 26 23 21 21 23 25 27 29 32 35 37 39 39 39 39 41
28 35 43 49 57 62 55 54 52 50 61 46 44 51 50 46 51 45 34 33 35 34 35 36 39 42 41 33 26 22 22 22 24 25 28 31 33 36 37 38 37 39 41 44
38 38 42 44 48 49 45 40 30 47 51 39 39 44 44 49 49 47 43 41 39 39 41 41 40 39 32 27 21 22 23 23 24 27 29 31 33 36 36 36 37 40 42 43
36 38 43 43 42 42 31 39 45 42 37 39 39 40 42 40 37 37 34 37 39 40 40 40 40 34 27 20 20 22 22 23 26 27 29 32 34 35 34 36 37 40 41 42
34 35 40 41 38 34 36 36 33 27 30 34 37 38 39 43 40 38 37 38 40 42 38 41 27 23 17 19 20 20 21 23 25 28 30 32 32 32 33 36 38 40 39 41
9 13 33 39 40 43 43 42 40 34 30 31 30 32 38 38 38 38 38 37 40 38 38 25 21 16 16 16 17 19 20 23 25 28 29 30 31 31 33 36 36 39 40 42
15 32 28 42 42 39 40 40 35 39 35 34 29 31 34 37 36 36 36 35 37 37 29 22 15 14 13 13 15 17 20 23 25 27 27 28 29 31 35 35 37 39 39 39
16 15 20 25 40 36 35 36 35 36 33 34 36 34 35 35 36 37 36 35 35 36 25 18 12 9 12 13 15 17 20 23 24 25 27 28 31 32 34 37 38 36 37 44
Wind_Direction
268 260 256 261 261 260 265 264 263 263 258 261 263 262 260 264 265 270 265 264 259 259 256 251 252 250 247 249 256 270 284 308 312 318 322 323 324 328 330 332 332 331 331 334
262 260 263 264 263 262 262 262 263 265 266 267 267 265 264 264 263 265 266 265 261 255 254 246 240 246 240 240 245 251 256 273 291 308 313 317 322 324 324 326 330 329 330 329
261 266 274 264 266 264 261 263 263 262 266 269 270 267 266 266 267 268 267 265 263 255 250 249 242 244 245 238 234 239 245 259 278 302 310 315 320 320 324 329 328 330 327 327
265 270 273 268 264 264 264 265 264 264 261 261 265 266 267 265 263 262 263 264 261 255 252 252 251 247 242 238 240 241 243 253 267 289 303 307 311 314 318 319 322 323 325 325
265 270 269 267 267 267 266 270 265 263 264 265 268 266 273 281 255 259 259 261 260 258 253 255 256 250 244 244 241 245 246 251 266 278 295 304 309 314 318 319 319 321 324 326
268 279 273 272 271 270 272 274 270 269 266 262 263 265 270 271 268 264 264 263 261 261 263 262 261 256 242 246 246 246 246 253 259 272 284 296 306 310 313 316 318 321 323 323
269 268 271 273 270 270 269 266 264 263 260 261 266 264 266 280 284 272 268 267 274 274 275 275 272 268 247 244 243 243 246 252 256 268 280 291 301 307 311 315 318 319 321 322
269 266 265 264 263 264 263 263 260 262 264 268 263 262 266 275 277 271 277 279 287 285 282 279 277 271 258 247 244 244 246 258 258 266 278 289 299 306 311 314 316 318 319 321
270 268 281 264 259 263 263 261 266 268 271 270 273 262 273 279 273 275 275 281 284 289 291 287 283 278 268 249 242 247 250 260 259 267 280 290 298 304 309 312 315 317 318 319
275 271 271 273 270 266 264 270 264 264 262 261 264 266 271 268 267 267 269 278 289 297 298 297 292 285 274 254 246 248 251 261 259 271 284 292 298 304 308 312 313 315 317 318
277 272 266 267 262 264 264 263 265 268 262 262 264 266 272 269 276 272 274 276 294 301 306 305 301 296 280 265 244 248 252 257 269 277 288 295 301 306 310 312 313 314 316 317
285 273 264 262 265 271 266 264 262 260 259 264 265 261 292 285 287 287 280 284 300 306 311 315 315 307 288 268 252 254 259 267 275 285 294 299 303 306 310 312 314 315 316 316
289 273 268 265 264 264 265 262 263 267 263 258 258 259 265 283 282 284 280 290 292 299 308 315 316 314 299 282 277 270 271 280 288 292 298 303 306 307 309 312 314 314 314 314
286 272 268 264 264 265 263 264 263 261 259 259 258 262 262 276 273 283 283 279 284 287 296 296 298 298 297 293 288 287 288 291 295 298 302 305 308 310 311 312 313 314 314 313
281 270 272 268 267 267 268 264 267 261 260 257 260 261 259 266 275 312 300 292 281 281 287 288 288 290 292 288 287 289 291 292 295 298 302 305 309 311 312 312 313 314 313 312
280 271 273 267 267 265 263 263 265 262 261 262 262 261 261 269 273 276 282 283 285 286 287 288 285 281 286 291 293 287 291 295 297 299 302 307 309 310 312 313 313 313 312 310
275 272 271 266 267 266 261 258 260 262 262 263 261 263 267 266 270 273 277 280 280 280 281 281 283 286 288 290 292 290 291 295 296 300 304 307 309 311 313 314 314 313 312 311
270 268 268 265 267 260 264 265 264 264 264 264 266 264 265 266 270 273 276 277 279 281 280 280 280 284 287 291 293 289 290 291 297 303 305 308 311 312 313 313 313 314 314 312
267 267 265 262 261 266 264 262 265 264 263 266 267 266 269 270 272 270 275 274 277 278 280 281 280 283 289 291 292 287 288 293 299 304 306 310 312 313 313 313 314 315 314 312
279 269 265 264 262 261 265 264 266 268 263 265 269 268 269 272 266 269 277 284 280 285 284 287 286 281 283 288 287 283 288 294 299 305 308 311 313 314 315 315 316 316 313 310
277 273 268 268 267 268 269 271 280 255 263 270 272 268 271 267 268 273 279 279 279 283 283 284 286 284 285 285 282 286 291 295 302 307 310 312 314 315 317 318 317 315 313 312
281 276 269 270 271 271 275 270 263 272 277 273 275 275 273 274 276 276 282 280 282 281 282 284 284 282 285 283 285 287 291 298 304 308 311 312 314 317 319 318 319 316 316 316
287 281 277 271 273 278 281 278 282 283 290 280 276 276 275 272 273 275 281 284 282 281 284 286 282 284 280 284 285 287 294 302 306 309 311 314 317 320 321 321 320 319 320 318
290 295 284 279 275 272 272 274 276 281 286 284 281 277 275 279 275 276 279 281 280 282 285 280 280 271 278 282 288 293 300 306 308 310 313 317 321 324 323 322 323 323 322 319
275 298 296 281 275 273 271 272 276 278 282 283 283 280 275 277 275 276 280 281 280 281 289 279 265 267 272 283 292 301 306 308 309 312 317 321 321 325 323 325 325 325 324 323
246 275 236 236 267 269 271 272 270 277 282 276 279 276 278 277 275 277 279 278 278 277 282 265 261 264 278 289 299 306 310 310 311 315 317 319 322 325 325 322 326 333 331 319